sat.trackr.live / text

‹ back to catalog

STARLINK-30771

NORAD 58169 · 2023-166V

PAYLOAD ACTIVE UNKNOWN

§ Identity

Operator
Country
US
Launch date
2023-10-29
Launch site
AFWTR
Launch vehicle
Mass (kg)
RCS (m²)

Purposes: comms

External: N2YO · Heavens-Above · Gunter

§ Orbital elements

Epoch: 2026-09-20T13:12:47.665152Z

Period
93.85 min
Inclination
53.1622°
Eccentricity
0.0001113
Mean motion
15.34377955 rev/d
Perigee alt
462.0 km
Apogee alt
463.5 km
Semi-major
6,840.9 km
B*
1.0800e-4
RAAN
33.7801°
Arg perigee
95.3835°
Mean anomaly
264.7295°
Rev number
16,302

§ Raw data

STARLINK-307711 58169U 23166V   26263.55055168  .00003272  00000+0  10800-3 0  99962 58169  53.1622  33.7801 0001113  95.3835 264.7295 15.34377955163027

JSON: /api/v1/satellites/58169 · /tle

For live sub-satellite position, see the globe view (requires WebGL).

§ Visibility from observer

Set your observer location to see the next 7 days of passes ≥ 10°. The values pass through the URL so the page stays shareable.

No JS? Fill the form by hand. The geolocation button needs JavaScript.